MSR750 LGAV-HECA

Flight info

Callsign MSR750
Flight time 1h 27m
Altitude 37000
Route KEA UN132 KUPIS DCT LAPSO UN132 KUMBI L612 BLT A16 CVO
Aircraft A320/M-SDE3FGHIRWY/LB1

Departure

Time 2026-05-07 18:55
Airport Athens Eleftherios Venizelos International Airport (LGAV)

Arrival

Time 2026-05-07 20:23
Airport Cairo International Airport (HECA)
Time Latitude Longitude Altitude Speed Heading
2026-05-07 18:37 37.93461 23.94702 300 ft 0 kts 306°
2026-05-07 18:47 37.93455 23.94712 303 ft 3 kts 305°
2026-05-07 18:48 37.93442 23.94736 301 ft 3 kts 300°
2026-05-07 18:48 37.93431 23.94763 301 ft 3 kts 287°
2026-05-07 18:48 37.93428 23.94790 301 ft 3 kts 247°
2026-05-07 18:48 37.93433 23.94801 301 ft 0 kts 217°
2026-05-07 18:50 37.93376 23.94746 303 ft 11 kts 217°
2026-05-07 18:50 37.93311 23.94683 301 ft 13 kts 217°
2026-05-07 18:51 37.93240 23.94615 301 ft 13 kts 217°
2026-05-07 18:51 37.93147 23.94593 304 ft 14 kts 183°
2026-05-07 18:51 37.93050 23.94568 301 ft 15 kts 214°
2026-05-07 18:51 37.92973 23.94493 302 ft 14 kts 217°
2026-05-07 18:52 37.92890 23.94414 302 ft 16 kts 217°
2026-05-07 18:52 37.92804 23.94334 304 ft 16 kts 217°
2026-05-07 18:52 37.92721 23.94255 303 ft 14 kts 217°
2026-05-07 18:52 37.92659 23.94195 302 ft 9 kts 217°
2026-05-07 18:53 37.92602 23.94219 302 ft 10 kts 134°
2026-05-07 18:53 37.92557 23.94290 304 ft 10 kts 128°
2026-05-07 18:53 37.92516 23.94360 307 ft 9 kts 127°
2026-05-07 18:53 37.92491 23.94426 308 ft 8 kts 92°
2026-05-07 18:54 37.92529 23.94494 307 ft 11 kts 40°
2026-05-07 18:54 37.92600 23.94563 305 ft 9 kts 37°
2026-05-07 18:54 37.92665 23.94624 307 ft 33 kts 36°
2026-05-07 18:54 37.93111 23.95037 293 ft 122 kts 38°
2026-05-07 18:55 37.93963 23.95861 357 ft 176 kts 15°
2026-05-07 18:55 37.94996 23.96842 816 ft 192 kts 29°
2026-05-07 18:55 37.96060 23.97932 1625 ft 197 kts 29°
2026-05-07 18:55 37.97197 23.98920 2271 ft 206 kts 22°
2026-05-07 18:56 37.98512 23.99942 2786 ft 234 kts 29°
2026-05-07 18:56 37.99892 24.01189 3451 ft 252 kts 32°
2026-05-07 18:56 38.01394 24.02526 3817 ft 276 kts 31°
2026-05-07 18:56 38.02997 24.03939 4578 ft 281 kts 31°
2026-05-07 18:57 38.04576 24.05385 5585 ft 277 kts 31°
2026-05-07 18:57 38.06085 24.06853 6621 ft 272 kts 32°
2026-05-07 18:57 38.07567 24.08377 7315 ft 281 kts 33°
2026-05-07 18:57 38.09066 24.10064 7877 ft 290 kts 42°
2026-05-07 18:58 38.10233 24.12125 8850 ft 286 kts 57°
2026-05-07 18:58 38.10946 24.14546 9345 ft 303 kts 75°
2026-05-07 18:58 38.10977 24.17263 9806 ft 315 kts 99°
2026-05-07 18:58 38.10103 24.19801 10423 ft 318 kts 125°
2026-05-07 18:59 38.08399 24.21602 10807 ft 325 kts 155°
2026-05-07 18:59 38.06203 24.22159 11405 ft 323 kts 177°
2026-05-07 18:59 38.03948 24.22146 11885 ft 333 kts 180°
2026-05-07 18:59 38.01561 24.21833 12104 ft 350 kts 190°
2026-05-07 19:00 37.99161 24.21143 12338 ft 366 kts 191°
2026-05-07 19:00 37.96519 24.20743 12505 ft 386 kts 178°
2026-05-07 19:00 37.93921 24.21140 13842 ft 369 kts 166°
2026-05-07 19:00 37.91413 24.21931 14417 ft 375 kts 162°
2026-05-07 19:01 37.88909 24.22966 14889 ft 382 kts 158°
2026-05-07 19:01 37.86433 24.24236 15371 ft 387 kts 154°
2026-05-07 19:01 37.83996 24.25740 15885 ft 392 kts 151°
2026-05-07 19:01 37.81534 24.27246 16315 ft 396 kts 161°
2026-05-07 19:02 37.78833 24.27902 16718 ft 397 kts 178°
2026-05-07 19:02 37.76103 24.27742 17557 ft 388 kts 184°
2026-05-07 19:02 37.73413 24.27671 18369 ft 388 kts 178°
2026-05-07 19:02 37.70684 24.27923 18706 ft 399 kts 174°
2026-05-07 19:03 37.67892 24.28377 19011 ft 410 kts 171°
2026-05-07 19:03 37.65049 24.29033 19331 ft 420 kts 169°
2026-05-07 19:03 37.62180 24.29889 19698 ft 428 kts 166°
2026-05-07 19:03 37.59297 24.30943 20084 ft 435 kts 163°
2026-05-07 19:04 37.56421 24.32192 20489 ft 440 kts 160°
2026-05-07 19:04 37.53568 24.33628 20911 ft 444 kts 157°
2026-05-07 19:04 37.50745 24.35251 21348 ft 447 kts 154°
2026-05-07 19:04 37.47981 24.37056 21843 ft 448 kts 150°
2026-05-07 19:05 37.45409 24.39262 22558 ft 445 kts 138°
2026-05-07 19:05 37.43329 24.42128 23334 ft 445 kts 128°
2026-05-07 19:05 37.41305 24.45119 23545 ft 452 kts 131°
2026-05-07 19:05 37.39146 24.47998 23855 ft 456 kts 136°
2026-05-07 19:06 37.36860 24.50766 24239 ft 457 kts 139°
2026-05-07 19:06 37.32223 24.56322 24909 ft 465 kts 137°
2026-05-07 19:06 37.29923 24.59198 25220 ft 469 kts 136°
2026-05-07 19:07 37.27634 24.62141 25519 ft 473 kts 136°
2026-05-07 19:07 37.25349 24.65134 25824 ft 477 kts 135°
2026-05-07 19:07 37.23055 24.68163 26121 ft 480 kts 135°
2026-05-07 19:07 37.20742 24.71211 26410 ft 484 kts 135°
2026-05-07 19:08 37.18403 24.74274 26700 ft 488 kts 135°
2026-05-07 19:08 37.16037 24.77344 26998 ft 492 kts 136°
2026-05-07 19:08 37.13644 24.80425 27289 ft 495 kts 136°
2026-05-07 19:08 37.11230 24.83525 27580 ft 499 kts 136°
2026-05-07 19:09 37.08798 24.86645 27854 ft 502 kts 136°
2026-05-07 19:09 37.06345 24.89793 28111 ft 507 kts 135°
2026-05-07 19:09 37.03881 24.92962 28385 ft 510 kts 135°
2026-05-07 19:09 37.01395 24.96157 28659 ft 514 kts 135°
2026-05-07 19:10 36.98890 24.99370 28933 ft 517 kts 135°
2026-05-07 19:10 36.97218 25.01511 29112 ft 520 kts 135°
2026-05-07 19:10 36.93829 25.05852 29553 ft 522 kts 135°
2026-05-07 19:10 36.92149 25.08002 29809 ft 523 kts 135°
2026-05-07 19:11 36.89579 25.11219 30179 ft 524 kts 136°
2026-05-07 19:11 36.86952 25.14390 30505 ft 525 kts 137°
2026-05-07 19:11 36.84292 25.17515 30843 ft 525 kts 138°
2026-05-07 19:11 36.81615 25.20623 31196 ft 526 kts 139°
2026-05-07 19:12 36.78935 25.23730 31555 ft 526 kts 139°
2026-05-07 19:12 36.76260 25.26850 31863 ft 527 kts 138°
2026-05-07 19:12 36.73595 25.29987 32215 ft 528 kts 138°
2026-05-07 19:12 36.70932 25.33141 32614 ft 528 kts 138°
2026-05-07 19:13 36.68280 25.36292 33010 ft 527 kts 138°
2026-05-07 19:13 36.65627 25.39440 33395 ft 527 kts 138°
2026-05-07 19:13 36.62979 25.42593 33757 ft 527 kts 137°
2026-05-07 19:13 36.60348 25.45772 34122 ft 528 kts 137°
2026-05-07 19:14 36.57724 25.48972 34446 ft 527 kts 137°
2026-05-07 19:14 36.55110 25.52172 34771 ft 527 kts 137°
2026-05-07 19:14 36.52500 25.55362 35099 ft 526 kts 137°
2026-05-07 19:14 36.49885 25.58544 35417 ft 525 kts 137°
2026-05-07 19:15 36.47273 25.61709 35710 ft 524 kts 136°
2026-05-07 19:15 36.44657 25.64866 36026 ft 524 kts 136°
2026-05-07 19:15 36.42039 25.68020 36270 ft 524 kts 136°
2026-05-07 19:15 36.39420 25.71174 36540 ft 524 kts 136°
2026-05-07 19:16 36.36805 25.74324 36820 ft 524 kts 136°
2026-05-07 19:16 36.34193 25.77468 37085 ft 524 kts 136°
2026-05-07 19:16 36.28931 25.83791 37159 ft 530 kts 136°
2026-05-07 19:17 36.23620 25.90148 37156 ft 531 kts 136°
2026-05-07 19:17 36.18282 25.96481 37163 ft 533 kts 136°
2026-05-07 19:18 36.12900 26.02807 37158 ft 533 kts 136°
2026-05-07 19:18 36.07516 26.09122 37160 ft 533 kts 136°
2026-05-07 19:19 36.02139 26.15439 37163 ft 534 kts 136°
2026-05-07 19:19 35.96756 26.21755 37166 ft 534 kts 136°
2026-05-07 19:20 35.91362 26.28058 37169 ft 535 kts 136°
2026-05-07 19:20 35.85955 26.34377 37141 ft 536 kts 136°
2026-05-07 19:21 35.80535 26.40684 37161 ft 536 kts 136°
2026-05-07 19:21 35.75142 26.46940 37169 ft 536 kts 136°
2026-05-07 19:22 35.69715 26.53242 37169 ft 536 kts 136°
2026-05-07 19:22 35.64290 26.59538 37172 ft 537 kts 136°
2026-05-07 19:23 35.58842 26.65832 37163 ft 538 kts 136°
2026-05-07 19:23 35.53380 26.72130 37144 ft 538 kts 136°
2026-05-07 19:24 35.47921 26.78420 37165 ft 538 kts 136°
2026-05-07 19:24 35.42455 26.84699 37182 ft 538 kts 136°
2026-05-07 19:25 35.36986 26.90972 37184 ft 539 kts 136°
2026-05-07 19:25 35.31509 26.97251 37176 ft 540 kts 136°
2026-05-07 19:26 35.26009 27.03528 37177 ft 541 kts 136°
2026-05-07 19:26 35.20500 27.09799 37180 ft 541 kts 136°
2026-05-07 19:27 35.14981 27.16066 37176 ft 541 kts 136°
2026-05-07 19:27 35.09466 27.22341 37176 ft 542 kts 136°
2026-05-07 19:28 35.03935 27.28616 37169 ft 543 kts 136°
2026-05-07 19:28 34.98387 27.34885 37171 ft 544 kts 136°
2026-05-07 19:29 34.92832 27.41150 37167 ft 544 kts 136°
2026-05-07 19:29 34.87271 27.47392 37177 ft 543 kts 136°
2026-05-07 19:30 34.81702 27.53621 37177 ft 544 kts 136°
2026-05-07 19:30 34.76130 27.59865 37168 ft 545 kts 136°
2026-05-07 19:31 34.70553 27.66112 37166 ft 545 kts 136°
2026-05-07 19:31 34.65004 27.72308 37172 ft 546 kts 136°
2026-05-07 19:32 34.59363 27.78576 37162 ft 546 kts 136°
2026-05-07 19:32 34.53800 27.84750 37182 ft 545 kts 136°
2026-05-07 19:33 34.48208 27.90959 37185 ft 545 kts 136°
2026-05-07 19:33 34.42611 27.97154 37189 ft 545 kts 136°
2026-05-07 19:34 34.37019 28.03338 37184 ft 544 kts 136°
2026-05-07 19:34 34.31417 28.09507 37194 ft 545 kts 136°
2026-05-07 19:35 34.25813 28.15673 37172 ft 545 kts 136°
2026-05-07 19:35 34.20200 28.21838 37175 ft 545 kts 136°
2026-05-07 19:36 34.14585 28.28005 37180 ft 546 kts 136°
2026-05-07 19:36 34.08968 28.34171 37185 ft 546 kts 136°
2026-05-07 19:37 34.03336 28.40328 37198 ft 547 kts 136°
2026-05-07 19:37 33.97688 28.46481 37174 ft 547 kts 135°
2026-05-07 19:38 33.92031 28.52626 37182 ft 547 kts 136°
2026-05-07 19:38 33.86380 28.58756 37189 ft 547 kts 136°
2026-05-07 19:39 33.80727 28.64889 37187 ft 547 kts 136°
2026-05-07 19:39 33.75076 28.71009 37201 ft 547 kts 136°
2026-05-07 19:40 33.69425 28.77135 37191 ft 547 kts 135°
2026-05-07 19:40 33.63895 28.83314 37171 ft 547 kts 134°
2026-05-07 19:41 33.58374 28.89588 37180 ft 547 kts 134°
2026-05-07 19:41 33.52840 28.95844 37200 ft 547 kts 134°
2026-05-07 19:42 33.47277 29.02056 37196 ft 547 kts 134°
2026-05-07 19:42 33.41699 29.08245 37191 ft 547 kts 134°
2026-05-07 19:43 33.36121 29.14437 37193 ft 547 kts 134°
2026-05-07 19:43 33.30551 29.20631 37179 ft 547 kts 134°
2026-05-07 19:44 33.24998 29.26818 37207 ft 546 kts 134°
2026-05-07 19:44 33.19422 29.33000 37201 ft 546 kts 134°
2026-05-07 19:45 33.13851 29.39148 37200 ft 545 kts 134°
2026-05-07 19:45 33.08280 29.45287 37198 ft 545 kts 134°
2026-05-07 19:46 33.02715 29.51416 37194 ft 540 kts 134°
2026-05-07 19:46 32.97272 29.57398 37193 ft 528 kts 134°
2026-05-07 19:47 32.91882 29.63299 37188 ft 526 kts 134°
2026-05-07 19:47 32.86498 29.69203 37186 ft 526 kts 134°
2026-05-07 19:48 32.81126 29.75097 36881 ft 525 kts 134°
2026-05-07 19:48 32.78435 29.78037 36320 ft 525 kts 134°
2026-05-07 19:48 32.75743 29.80968 35768 ft 525 kts 134°
2026-05-07 19:49 32.73054 29.83890 35242 ft 524 kts 135°
2026-05-07 19:49 32.70381 29.86798 34833 ft 519 kts 135°
2026-05-07 19:49 32.67725 29.89691 34341 ft 517 kts 135°
2026-05-07 19:49 32.65112 29.92538 33761 ft 516 kts 135°
2026-05-07 19:50 32.62469 29.95412 33169 ft 514 kts 135°
2026-05-07 19:50 32.59837 29.98270 32603 ft 512 kts 135°
2026-05-07 19:50 32.57183 30.01148 32033 ft 509 kts 135°
2026-05-07 19:50 32.54612 30.03938 31482 ft 506 kts 135°
2026-05-07 19:51 32.52023 30.06744 30904 ft 503 kts 135°
2026-05-07 19:51 32.49414 30.09570 30379 ft 500 kts 135°
2026-05-07 19:51 32.46892 30.12300 30163 ft 497 kts 135°
2026-05-07 19:51 32.44344 30.15048 30163 ft 495 kts 135°
2026-05-07 19:52 32.39256 30.20525 30164 ft 494 kts 135°
2026-05-07 19:52 32.34163 30.25997 30152 ft 494 kts 136°
2026-05-07 19:53 32.29080 30.31461 30162 ft 494 kts 135°
2026-05-07 19:53 32.23993 30.36924 30163 ft 494 kts 136°
2026-05-07 19:54 32.18906 30.42361 30175 ft 493 kts 136°
2026-05-07 19:54 32.13810 30.47796 30179 ft 493 kts 136°
2026-05-07 19:55 32.08732 30.53208 30175 ft 492 kts 136°
2026-05-07 19:55 32.03655 30.58610 30170 ft 491 kts 136°
2026-05-07 19:56 31.98591 30.64009 30157 ft 491 kts 136°
2026-05-07 19:56 31.94380 30.68491 30155 ft 491 kts 136°
2026-05-07 19:57 31.91841 30.71185 29916 ft 491 kts 136°
2026-05-07 19:57 31.89303 30.73872 29638 ft 491 kts 136°
2026-05-07 19:57 31.86765 30.76557 29363 ft 490 kts 136°
2026-05-07 19:57 31.84238 30.79230 29087 ft 488 kts 136°
2026-05-07 19:58 31.81726 30.81889 28819 ft 485 kts 136°
2026-05-07 19:58 31.79224 30.84532 28552 ft 482 kts 136°
2026-05-07 19:58 31.76734 30.87158 28287 ft 480 kts 136°
2026-05-07 19:58 31.74258 30.89770 28025 ft 477 kts 136°
2026-05-07 19:59 31.71797 30.92367 27766 ft 474 kts 137°
2026-05-07 19:59 31.69350 30.94949 27499 ft 472 kts 136°
2026-05-07 19:59 31.66916 30.97514 27247 ft 470 kts 136°
2026-05-07 19:59 31.64485 31.00069 26990 ft 468 kts 137°
2026-05-07 20:00 31.62067 31.02607 26753 ft 465 kts 137°
2026-05-07 20:00 31.59665 31.05130 26499 ft 463 kts 137°
2026-05-07 20:00 31.57273 31.07640 26256 ft 460 kts 137°
2026-05-07 20:00 31.54756 31.09940 26007 ft 458 kts 147°
2026-05-07 20:01 31.51958 31.11709 25766 ft 456 kts 157°
2026-05-07 20:01 31.48968 31.12902 25525 ft 453 kts 167°
2026-05-07 20:01 31.45885 31.13568 25289 ft 450 kts 172°
2026-05-07 20:01 31.42804 31.14148 25054 ft 447 kts 172°
2026-05-07 20:02 31.39737 31.14722 24819 ft 445 kts 172°
2026-05-07 20:02 31.36686 31.15292 24584 ft 443 kts 172°
2026-05-07 20:02 31.33689 31.15851 24358 ft 441 kts 172°
2026-05-07 20:02 31.30631 31.16422 24127 ft 438 kts 172°
2026-05-07 20:03 31.27666 31.16974 23897 ft 436 kts 172°
2026-05-07 20:03 31.24681 31.17530 23667 ft 433 kts 172°
2026-05-07 20:03 31.21714 31.18085 23408 ft 431 kts 172°
2026-05-07 20:03 31.18758 31.18638 23132 ft 429 kts 172°
2026-05-07 20:04 31.15816 31.19189 22872 ft 427 kts 172°
2026-05-07 20:04 31.12886 31.19736 22600 ft 426 kts 172°
2026-05-07 20:04 31.09963 31.20282 22340 ft 425 kts 172°
2026-05-07 20:04 31.07053 31.20824 22079 ft 423 kts 172°
2026-05-07 20:05 31.04153 31.21363 21816 ft 421 kts 172°
2026-05-07 20:05 31.01264 31.21899 21570 ft 419 kts 172°
2026-05-07 20:05 30.98388 31.22433 21319 ft 418 kts 172°
2026-05-07 20:05 30.95525 31.22967 21069 ft 416 kts 172°
2026-05-07 20:06 30.92670 31.23497 20820 ft 414 kts 172°
2026-05-07 20:06 30.89828 31.24022 20571 ft 413 kts 172°
2026-05-07 20:06 30.87001 31.24544 20329 ft 410 kts 172°
2026-05-07 20:06 30.84199 31.25060 19948 ft 405 kts 172°
2026-05-07 20:07 30.81426 31.25572 19476 ft 403 kts 172°
2026-05-07 20:07 30.78666 31.26083 18992 ft 400 kts 172°
2026-05-07 20:07 30.75927 31.26591 18504 ft 398 kts 172°
2026-05-07 20:07 30.73195 31.27098 17937 ft 397 kts 172°
2026-05-07 20:08 30.70477 31.27602 17336 ft 395 kts 172°
2026-05-07 20:08 30.67733 31.28107 16443 ft 402 kts 172°
2026-05-07 20:08 30.64977 31.28612 15893 ft 399 kts 172°
2026-05-07 20:08 30.62243 31.29112 15320 ft 397 kts 172°
2026-05-07 20:09 30.59530 31.29610 14744 ft 391 kts 172°
2026-05-07 20:09 30.56926 31.30091 14504 ft 365 kts 172°
2026-05-07 20:09 30.54472 31.30546 14052 ft 351 kts 172°
2026-05-07 20:10 30.49734 31.31419 12815 ft 335 kts 172°
2026-05-07 20:10 30.47495 31.31793 12534 ft 318 kts 176°
2026-05-07 20:10 30.45331 31.31676 12026 ft 308 kts 197°
2026-05-07 20:10 30.43426 31.30664 11446 ft 300 kts 214°
2026-05-07 20:11 30.41685 31.29350 10849 ft 298 kts 217°
2026-05-07 20:11 30.39974 31.28016 10295 ft 295 kts 217°
2026-05-07 20:11 30.38280 31.26688 9722 ft 293 kts 217°
2026-05-07 20:11 30.36601 31.25366 9118 ft 291 kts 217°
2026-05-07 20:12 30.34936 31.24050 8507 ft 289 kts 217°
2026-05-07 20:12 30.33289 31.22743 8097 ft 280 kts 217°
2026-05-07 20:12 30.31731 31.21509 7911 ft 265 kts 217°
2026-05-07 20:12 30.30227 31.20324 7498 ft 259 kts 217°
2026-05-07 20:13 30.28746 31.19153 7074 ft 255 kts 217°
2026-05-07 20:13 30.27237 31.17989 6334 ft 265 kts 210°
2026-05-07 20:13 30.25456 31.17369 5623 ft 273 kts 181°
2026-05-07 20:13 30.23605 31.17628 4977 ft 274 kts 166°
2026-05-07 20:14 30.21700 31.18118 4262 ft 279 kts 165°
2026-05-07 20:14 30.19796 31.18624 3415 ft 286 kts 164°
2026-05-07 20:14 30.17813 31.19158 2486 ft 295 kts 163°
2026-05-07 20:14 30.15860 31.19678 2275 ft 277 kts 163°
2026-05-07 20:15 30.14059 31.20151 2267 ft 258 kts 163°
2026-05-07 20:15 30.12369 31.20589 2262 ft 233 kts 163°
2026-05-07 20:15 30.10845 31.20984 2262 ft 217 kts 162°
2026-05-07 20:15 30.09461 31.21344 2284 ft 192 kts 162°
2026-05-07 20:16 30.08242 31.21659 2290 ft 171 kts 160°
2026-05-07 20:16 30.07128 31.21953 2284 ft 163 kts 159°
2026-05-07 20:16 30.06032 31.22246 2283 ft 160 kts 159°
2026-05-07 20:16 30.04947 31.22536 2281 ft 160 kts 159°
2026-05-07 20:17 30.03863 31.22826 2277 ft 160 kts 159°
2026-05-07 20:17 30.02777 31.23117 2275 ft 160 kts 158°
2026-05-07 20:17 30.01796 31.23638 2278 ft 152 kts 134°
2026-05-07 20:17 30.01095 31.24483 2290 ft 142 kts 112°
2026-05-07 20:18 30.00715 31.25486 2293 ft 132 kts 94°
2026-05-07 20:18 30.00643 31.26505 2293 ft 125 kts 77°
2026-05-07 20:18 30.00847 31.27469 2288 ft 124 kts 61°
2026-05-07 20:18 30.01304 31.28312 2294 ft 125 kts 47°
2026-05-07 20:19 30.01878 31.29072 2298 ft 127 kts 47°
2026-05-07 20:19 30.02457 31.29841 2298 ft 127 kts 47°
2026-05-07 20:19 30.03037 31.30610 2300 ft 127 kts 47°
2026-05-07 20:19 30.03618 31.31381 2235 ft 127 kts 48°
2026-05-07 20:20 30.04200 31.32154 2112 ft 127 kts 48°
2026-05-07 20:20 30.04777 31.32920 1969 ft 127 kts 47°
2026-05-07 20:20 30.05355 31.33688 1808 ft 127 kts 48°
2026-05-07 20:20 30.05936 31.34461 1635 ft 127 kts 49°
2026-05-07 20:21 30.06511 31.35225 1466 ft 126 kts 47°
2026-05-07 20:21 30.07089 31.35992 1304 ft 126 kts 47°
2026-05-07 20:21 30.07659 31.36751 1133 ft 125 kts 47°
2026-05-07 20:21 30.08229 31.37508 957 ft 126 kts 47°
2026-05-07 20:22 30.08801 31.38268 794 ft 125 kts 48°
2026-05-07 20:22 30.09368 31.39024 625 ft 125 kts 46°
2026-05-07 20:22 30.09934 31.39776 456 ft 124 kts 46°
2026-05-07 20:22 30.10462 31.40477 389 ft 104 kts 48°
2026-05-07 20:23 30.10825 31.40970 388 ft 55 kts 50°
2026-05-07 20:23 30.10995 31.41197 389 ft 32 kts 48°
2026-05-07 20:23 30.11130 31.41374 388 ft 22 kts 49°
2026-05-07 20:23 30.11235 31.41504 388 ft 18 kts 34°
2026-05-07 20:24 30.11348 31.41571 388 ft 18 kts 21°
2026-05-07 20:24 30.11456 31.41614 388 ft 8 kts 19°
2026-05-07 20:24 30.11507 31.41629 389 ft 8 kts 347°
2026-05-07 20:24 30.11549 31.41594 389 ft 7 kts 266°
2026-05-07 20:25 30.11537 31.41524 389 ft 10 kts 231°
2026-05-07 20:25 30.11485 31.41455 389 ft 12 kts 229°
2026-05-07 20:25 30.11424 31.41373 389 ft 15 kts 227°
2026-05-07 20:25 30.11364 31.41294 389 ft 11 kts 229°
2026-05-07 20:26 30.11310 31.41223 389 ft 13 kts 229°
2026-05-07 20:26 30.11245 31.41138 389 ft 15 kts 229°
2026-05-07 20:26 30.11182 31.41053 389 ft 12 kts 229°
2026-05-07 20:26 30.11122 31.40972 389 ft 14 kts 227°
2026-05-07 20:27 30.11051 31.40879 389 ft 16 kts 229°
2026-05-07 20:27 30.10989 31.40795 387 ft 12 kts 230°
2026-05-07 20:27 30.10928 31.40716 388 ft 14 kts 229°
2026-05-07 20:27 30.10862 31.40627 388 ft 13 kts 230°
2026-05-07 20:28 30.10815 31.40562 388 ft 8 kts 229°
2026-05-07 20:28 30.10770 31.40503 387 ft 11 kts 229°
2026-05-07 20:28 30.10711 31.40425 386 ft 14 kts 230°
2026-05-07 20:28 30.10673 31.40372 386 ft 8 kts 231°
2026-05-07 20:29 30.10677 31.40316 387 ft 8 kts 305°
2026-05-07 20:29 30.10695 31.40253 388 ft 8 kts 261°
2026-05-07 20:29 30.10649 31.40182 384 ft 14 kts 228°
2026-05-07 20:29 30.10604 31.40123 383 ft 9 kts 229°
2026-05-07 20:30 30.10547 31.40047 379 ft 15 kts 230°
2026-05-07 20:30 30.10496 31.39979 379 ft 9 kts 230°
2026-05-07 20:30 30.10480 31.39905 379 ft 11 kts 279°
2026-05-07 20:30 30.10537 31.39846 375 ft 14 kts 344°
2026-05-07 20:31 30.10634 31.39817 370 ft 10 kts 346°
2026-05-07 20:31 30.10681 31.39804 370 ft 8 kts 346°
2026-05-07 20:31 30.10732 31.39785 371 ft 9 kts 333°
2026-05-07 20:31 30.10746 31.39729 370 ft 4 kts 257°
2026-05-07 20:32 30.10741 31.39706 370 ft 1 kts 256°
2026-05-07 20:32 30.10738 31.39693 372 ft 0 kts 256°
2026-05-07 20:32 30.10738 31.39691 372 ft 0 kts 256°